This demonstration page uses our WeatherBlox Daily Observations layout. Learn more.

Left ArrowRight Arrow

40.92945, -100.16068

Hourly Observations for March 30, 2021

Temp ( °F °C ) Dew Point ( °F °C ) Humidity (%) Winds ( mph kmh ) Pressure ( in mb ) Visibility ( mi km ) Precip ( " mm )
12:15 am 00:15 Clear 44 6.6 21 -6.2 40 40 N 16 26 29.77 1008 10 16 N/A
12:35 am 00:35 Clear 44 6.5 20 -6.5 39 39 N 18 30 29.80 1009 10 16 N/A
12:55 am 00:55 Mostly Cloudy 43 6.1 21 -5.9 42 42 N 23 37 29.83 1010 10 16 N/A
1:15 am 01:15 Cloudy 43 6.1 16 -9 33 33 N 32 52 29.83 1010 10 16 N/A
1:35 am 01:35 Cloudy 42 5.5 13 -10.3 31 31 N 33 54 29.85 1011 10 16 N/A
1:55 am 01:55 Mostly Cloudy 41 4.9 15 -9.5 35 35 N 22 35 29.88 1012 10 16 N/A
2:15 am 02:15 Partly Cloudy 40 4.5 15 -9.4 36 36 N 17 28 29.90 1013 10 16 N/A
2:35 am 02:35 Mostly Cloudy 40 4.4 14 -10.1 34 34 N 25 41 29.91 1013 10 16 N/A
2:55 am 02:55 Cloudy 40 4.2 13 -10.6 33 33 N 22 35 29.94 1014 10 16 N/A
3:15 am 03:15 Cloudy 39 4 13 -10.8 33 33 N 18 30 29.94 1014 10 16 N/A
3:35 am 03:35 Cloudy 39 3.9 12 -10.9 33 33 N 16 26 29.94 1014 10 16 N/A
3:55 am 03:55 Cloudy 38 3.5 13 -10.6 35 35 N 15 24 29.95 1014 10 16 N/A
4:15 am 04:15 Mostly Cloudy 38 3.3 10 -12.3 31 31 N 26 43 29.96 1015 10 16 N/A
4:35 am 04:35 Mostly Cloudy 37 3 10 -12.2 32 32 N 23 37 29.97 1015 10 16 N/A
4:55 am 04:55 Mostly Cloudy 37 2.6 11 -11.6 35 35 N 20 31 29.97 1015 10 16 N/A
5:15 am 05:15 Mostly Cloudy 37 2.5 11 -11.5 35 35 N 17 28 29.97 1015 10 16 N/A
5:35 am 05:35 Cloudy 37 2.5 12 -10.9 37 37 N 14 22 29.98 1015 10 16 N/A
5:55 am 05:55 Cloudy 36 2.3 13 -10.6 38 38 N 12 19 29.99 1016 10 16 N/A
6:15 am 06:15 Cloudy 36 2 14 -10 41 41 N 9 15 30.01 1016 10 16 N/A
6:35 am 06:35 Cloudy 36 2.2 14 -9.8 41 41 N 8 13 30.03 1017 10 16 N/A
6:55 am 06:55 Cloudy 36 2.2 15 -9.5 42 42 N 5 7 30.04 1017 10 16 N/A
7:15 am 07:15 Cloudy 36 2.2 16 -8.8 44 44 N 3 6 30.05 1017 10 16 N/A
7:35 am 07:35 Cloudy 36 2.2 16 -8.8 44 44 N 5 7 30.05 1017 10 16 N/A
7:55 am 07:55 Cloudy 36 2.2 17 -8.1 47 47 NW 6 9 30.07 1018 10 16 N/A
8:15 am 08:15 Cloudy 36 2.3 17 -8.2 46 46 NW 6 9 30.06 1018 10 16 N/A
8:35 am 08:35 Cloudy 37 2.7 17 -8.3 45 45 WNW 7 11 30.08 1019 10 16 N/A
8:55 am 08:55 Cloudy 37 3 17 -8.3 44 44 NW 5 7 30.07 1018 10 16 N/A
9:15 am 09:15 Cloudy 38 3.2 17 -8.6 42 42 NW 9 15 30.08 1018 10 16 N/A
9:35 am 09:35 Cloudy 38 3.5 16 -8.8 41 41 NNW 9 15 30.08 1019 10 16 N/A
9:55 am 09:55 Cloudy 39 4 16 -9 39 39 NNW 10 17 30.09 1019 10 16 N/A
10:15 am 10:15 Mostly Cloudy 39 4.1 17 -8.5 40 40 NW 9 15 30.09 1019 10 16 N/A
10:35 am 10:35 Partly Cloudy 40 4.3 16 -9.1 37 37 NW 7 11 30.09 1019 10 16 N/A
10:55 am 10:55 Partly Cloudy 41 5 17 -8.6 37 37 NW 10 17 30.09 1019 10 16 N/A
11:15 am 11:15 Partly Cloudy 42 5.6 18 -7.7 38 38 WNW 12 19 30.09 1019 10 16 N/A
11:35 am 11:35 Mostly Cloudy 42 5.6 18 -7.7 38 38 NNW 10 17 30.09 1019 10 16 N/A
11:55 am 11:55 Cloudy 42 5.7 18 -8 37 37 NNW 13 20 30.10 1019 10 16 N/A
12:15 pm 12:15 Mostly Cloudy 42 5.7 17 -8.3 36 36 NW 12 19 30.10 1019 10 16 N/A
12:35 pm 12:35 Mostly Cloudy 43 6 17 -8.6 35 35 NNW 12 19 30.11 1020 10 16 N/A
12:55 pm 12:55 Mostly Cloudy 43 6 17 -8.2 36 36 N 15 24 30.11 1020 10 16 N/A
1:15 pm 13:15 Mostly Cloudy 43 6 16 -8.7 34 34 NNW 8 13 30.10 1019 10 16 N/A
1:35 pm 13:35 Partly Cloudy 43 6.3 17 -8.1 35 35 N 10 17 30.11 1019 10 16 N/A
1:55 pm 13:55 Partly Cloudy 44 6.8 18 -7.6 35 35 N 9 15 30.09 1019 10 16 N/A
2:15 pm 14:15 Partly Cloudy 44 6.8 17 -8.4 33 33 NNW 10 17 30.09 1019 10 16 N/A
2:35 pm 14:35 Sunny 45 7 16 -9.1 31 31 N 14 22 30.09 1019 10 16 N/A
2:55 pm 14:55 Sunny 46 7.7 16 -8.9 30 30 N 12 19 30.08 1019 10 16 N/A
3:15 pm 15:15 Sunny 47 8.3 15 -9.6 27 27 NNW 9 15 30.08 1019 10 16 N/A
3:35 pm 15:35 Partly Cloudy 46 8 14 -9.9 27 27 NNW 9 15 30.07 1018 10 16 N/A
3:55 pm 15:55 Partly Cloudy 46 7.9 13 -10.8 26 26 NNW 13 20 30.07 1018 10 16 N/A
4:15 pm 16:15 Mostly Cloudy 49 9.3 15 -9.6 26 26 N 14 22 30.05 1018 10 16 N/A
4:35 pm 16:35 Cloudy 49 9.4 15 -9.6 25 25 NNW 10 17 30.05 1017 10 16 N/A
4:55 pm 16:55 Partly Cloudy 48 9 13 -10.4 24 24 NW 13 20 30.06 1018 10 16 N/A
5:15 pm 17:15 Partly Cloudy 47 8.5 12 -11 24 24 NW 7 11 30.08 1018 10 16 N/A
5:35 pm 17:35 Partly Cloudy 47 8.5 15 -9.5 27 27 NNW 5 7 30.08 1018 10 16 N/A
5:55 pm 17:55 Partly Cloudy 48 9 11 -11.6 22 22 NW 9 15 30.08 1019 10 16 N/A
6:15 pm 18:15 Cloudy 49 9.3 12 -11.2 22 22 NW 17 28 30.09 1019 10 16 N/A
6:35 pm 18:35 Mostly Cloudy 48 9 11 -11.4 23 23 NW 18 30 30.10 1019 10 16 N/A
6:55 pm 18:55 Mostly Cloudy 48 9 11 -11.8 22 22 WNW 15 24 30.10 1019 10 16 N/A
7:15 pm 19:15 Partly Cloudy 46 7.5 14 -10.1 28 28 NW 15 24 30.13 1020 10 16 N/A
7:35 pm 19:35 Partly Cloudy 46 7.6 13 -10.5 27 27 NW 12 19 30.13 1020 10 16 N/A
7:55 pm 19:55 Partly Cloudy 44 6.6 12 -10.9 28 28 NW 12 19 30.15 1021 10 16 N/A
8:15 pm 20:15 Partly Cloudy 41 5 15 -9.6 34 34 NW 10 17 30.18 1022 10 16 N/A
8:35 pm 20:35 Clear 38 3.3 16 -9.1 40 40 NW 9 15 30.21 1023 10 16 N/A
8:55 pm 20:55 Clear 37 2.5 16 -9.1 42 42 NNW 9 15 30.23 1024 10 16 N/A
9:15 pm 21:15 Clear 36 2.2 14 -10 40 40 NNW 8 13 30.26 1025 10 16 N/A
9:35 pm 21:35 Clear 33 0.7 16 -8.9 49 49 NNW 8 13 30.28 1025 10 16 N/A
9:55 pm 21:55 Clear 31 -0.4 17 -8.6 54 54 NNW 7 11 30.30 1026 10 16 N/A
10:15 pm 22:15 Clear 31 -0.7 12 -10.9 46 46 W 5 7 30.31 1027 10 16 N/A
10:35 pm 22:35 Clear 29 -1.6 15 -9.2 57 57 W 6 9 30.33 1027 10 16 N/A
10:55 pm 22:55 Clear 30 -1.1 15 -9.3 54 54 W 8 13 30.34 1027 10 16 N/A
11:15 pm 23:15 Partly Cloudy 29 -1.4 18 -7.8 62 62 W 8 13 30.35 1028 10 16 N/A
11:35 pm 23:35 Partly Cloudy 29 -1.7 19 -7.4 65 65 W 5 7 30.36 1028 10 16 N/A
11:55 pm 23:55 Partly Cloudy 28 -2 19 -7.5 66 66 NW 8 13 30.38 1029 10 16 N/A

Powered by AerisWeather